Location: Narrabri
(30.3170°S, 149.7830°E)
Time: 15:50:46
(UTC+11:00)

OTV 5 (USA 277) - Pass Details

Date: 12 October 2017
Orbit: 404 x 417 km, 43.0° (Epoch: 07 September)

Event Time Altitude Azimuth Distance (km) Brightness Sun altitude
Exits shadow 05:57:11 - 315° (NW) 1,802 ? -7.0°
Reaches altitude 10° 05:58:02 10° 317° (NW) 1,459 ? -6.8°
Maximum altitude 06:01:17 58° 36° (NE) 481 ? -6.2°
Drops below altitude 10° 06:04:34 10° 116° (ESE) 1,473 ? -5.5°
Sets 06:06:41 0° 120° (ESE) 2,339 ? -5.0°
